�������l�o���
Date,Time,MP-1(��Sv/h),MP-2(��Sv/h),MP-3(��Sv/h),MP-4(��Sv/h),MP-5(��Sv/h),MP-6(��Sv/h),MP-7(��Sv/h),MP-8(��Sv/h),����,����(m/s),���J
2020/07/08,00:00,0.651,0.916,0.598,1.122,0.800,0.390,0.665,0.627,��,3.5,�L
2020/07/08,00:10,0.649,0.915,0.597,1.122,0.799,0.391,0.663,0.624,��,3.1,�L
2020/07/08,00:20,0.651,0.915,0.597,1.120,0.799,0.391,0.664,0.625,���쐼,2.5,�L
2020/07/08,00:30,0.651,0.915,0.598,1.121,0.798,0.391,0.663,0.626,��,3.4,�L
2020/07/08,00:40,0.652,0.911,0.598,1.121,0.796,0.388,0.662,0.626,��,2.2,�L
2020/07/08,00:50,0.650,0.912,0.599,1.119,0.797,0.390,0.663,0.622,�k�k��,0.9,�L
2020/07/08,01:00,0.650,0.912,0.598,1.120,0.797,0.388,0.662,0.624,-,CALM,�L
2020/07/08,01:10,0.650,0.911,0.597,1.119,0.795,0.389,0.662,0.625,�쐼,0.9,�L
2020/07/08,01:20,0.650,0.911,0.594,1.119,0.796,0.389,0.662,0.625,���쐼,1.4,�L
2020/07/08,01:30,0.649,0.910,0.594,1.118,0.795,0.389,0.662,0.624,�쐼,1.5,�L
2020/07/08,01:40,0.649,0.912,0.597,1.117,0.798,0.389,0.662,0.623,�쐼,1.2,�L
2020/07/08,01:50,0.651,0.912,0.596,1.118,0.798,0.388,0.663,0.624,��쐼,1.2,�L
2020/07/08,02:00,0.649,0.911,0.596,1.118,0.796,0.388,0.663,0.626,��,2.0,�L
2020/07/08,02:10,0.650,0.913,0.596,1.120,0.799,0.387,0.662,0.625,��,2.6,�L
2020/07/08,02:20,0.650,0.914,0.595,1.118,0.799,0.390,0.661,0.624,��,2.9,�L
2020/07/08,02:30,0.651,0.914,0.597,1.119,0.798,0.389,0.663,0.625,��쓌,1.7,�L
2020/07/08,02:40,0.651,0.913,0.598,1.118,0.800,0.390,0.664,0.625,��쓌,1.2,��
2020/07/08,02:50,0.652,0.916,0.596,1.119,0.797,0.389,0.663,0.626,�쓌,1.4,��
2020/07/08,03:00,0.649,0.916,0.597,1.121,0.799,0.388,0.663,0.626,��,1.1,��
2020/07/08,03:10,0.653,0.916,0.597,1.120,0.800,0.388,0.663,0.625,��,1.5,�L
2020/07/08,03:20,0.652,0.915,0.597,1.119,0.800,0.389,0.664,0.626,��쐼,1.7,�L
2020/07/08,03:30,0.650,0.914,0.597,1.120,0.799,0.387,0.664,0.625,�쐼,1.9,��
2020/07/08,03:40,0.653,0.916,0.598,1.117,0.800,0.389,0.663,0.627,��쐼,1.7,�L
2020/07/08,03:50,0.651,0.915,0.596,1.120,0.800,0.391,0.665,0.624,��쐼,0.9,�L
2020/07/08,04:00,0.651,0.916,0.597,1.122,0.801,0.391,0.663,0.626,��,1.5,�L
2020/07/08,04:10,0.651,0.917,0.599,1.119,0.800,0.390,0.665,0.626,��,1.7,�L
2020/07/08,04:20,0.654,0.918,0.597,1.119,0.800,0.389,0.664,0.625,��쐼,2.2,�L
2020/07/08,04:30,0.651,0.918,0.598,1.121,0.802,0.389,0.663,0.625,��,1.2,�L
2020/07/08,04:40,0.653,0.919,0.597,1.122,0.802,0.390,0.664,0.625,�쐼,0.9,�L
2020/07/08,04:50,0.653,0.918,0.597,1.122,0.802,0.390,0.664,0.625,��쐼,1.1,�L
2020/07/08,05:00,0.653,0.921,0.597,1.124,0.802,0.389,0.664,0.624,��,0.9,�L
2020/07/08,05:10,0.653,0.917,0.597,1.121,0.802,0.389,0.664,0.625,��,1.1,�L
2020/07/08,05:20,0.653,0.919,0.598,1.122,0.803,0.388,0.665,0.626,��쓌,2.5,��
2020/07/08,05:30,0.655,0.920,0.599,1.122,0.802,0.389,0.663,0.626,��,1.7,�L
2020/07/08,05:40,0.656,0.920,0.597,1.120,0.802,0.389,0.662,0.625,��,2.9,�L
2020/07/08,05:50,0.654,0.918,0.599,1.122,0.802,0.390,0.664,0.626,��,2.3,�L
2020/07/08,06:00,0.654,0.918,0.597,1.120,0.803,0.389,0.664,0.627,��,3.1,�L
2020/07/08,06:10,0.654,0.920,0.599,1.122,0.802,0.390,0.664,0.627,��,3.4,��
2020/07/08,06:20,0.654,0.921,0.596,1.123,0.803,0.389,0.664,0.627,��쐼,4.6,��
2020/07/08,06:30,0.654,0.919,0.599,1.121,0.803,0.389,0.664,0.625,��쐼,2.9,��
2020/07/08,06:40,0.652,0.917,0.599,1.122,0.802,0.391,0.664,0.626,��쐼,2.3,��
2020/07/08,06:50,0.654,0.923,0.599,1.124,0.803,0.391,0.664,0.625,��,4.0,��
2020/07/08,07:00,0.652,0.919,0.598,1.120,0.804,0.388,0.664,0.626,��쐼,4.3,��
2020/07/08,07:10,0.652,0.921,0.599,1.124,0.802,0.389,0.663,0.626,��쐼,2.8,��
2020/07/08,07:20,0.654,0.920,0.599,1.122,0.800,0.388,0.663,0.626,�k�k��,1.1,��
2020/07/08,07:30,0.653,0.920,0.599,1.122,0.801,0.388,0.662,0.627,�k,2.3,��
2020/07/08,07:40,0.654,0.919,0.597,1.123,0.802,0.389,0.664,0.627,�k�k��,4.7,�L
2020/07/08,07:50,0.653,0.919,0.599,1.122,0.804,0.388,0.664,0.627,�k�k��,6.2,�L
2020/07/08,08:00,0.652,0.919,0.597,1.122,0.802,0.388,0.661,0.627,�k��,5.4,�L
2020/07/08,08:10,0.651,0.919,0.598,1.122,0.805,0.386,0.662,0.625,�k�k��,5.4,�L
2020/07/08,08:20,0.652,0.920,0.597,1.124,0.803,0.386,0.663,0.625,�k��,5.1,�L
2020/07/08,08:30,0.651,0.915,0.599,1.121,0.801,0.389,0.663,0.625,�k�k��,5.5,�L
2020/07/08,08:40,0.651,0.915,0.597,1.121,0.801,0.388,0.662,0.623,�k�k��,6.5,�L
2020/07/08,08:50,0.649,0.912,0.595,1.121,0.797,0.387,0.662,0.624,�k��,6.4,�L
2020/07/08,09:00,0.648,0.909,0.594,1.119,0.797,0.388,0.660,0.622,�k��,6.5,�L
2020/07/08,09:10,0.647,0.906,0.594,1.116,0.794,0.388,0.659,0.622,�k��,6.7,�L
2020/07/08,09:20,0.646,0.902,0.591,1.110,0.790,0.386,0.658,0.621,�k�k��,6.5,�L
2020/07/08,09:30,0.642,0.893,0.588,1.099,0.782,0.385,0.653,0.616,-,CALM,�L
2020/07/08,09:40,0.631,0.875,0.580,1.078,0.769,0.381,0.644,0.606,-,CALM,�L
2020/07/08,09:50,0.622,0.861,0.577,1.059,0.755,0.370,0.642,0.602,�k��,5.4,�L
2020/07/08,10:00,0.619,0.854,0.572,1.047,0.744,0.358,0.641,0.602,��,13.5,�L
2020/07/08,10:10,0.605,0.843,0.569,1.029,0.725,0.319,0.634,0.594,�k�k��,7.3,�L
2020/07/08,10:20,0.600,0.842,0.564,1.021,0.710,0.276,0.631,0.588,�k,6.1,�L
2020/07/08,10:30,0.608,0.847,0.566,1.027,0.708,0.266,0.632,0.595,�k��,3.9,�L
2020/07/08,10:40,0.608,0.848,0.563,1.026,0.695,0.264,0.628,0.594,�k��,4.9,�L
2020/07/08,10:50,0.610,0.842,0.557,1.021,0.684,0.255,0.627,0.593,-,CALM,�L
2020/07/08,11:00,0.620,0.849,0.559,1.026,0.679,0.259,0.632,0.598,-,CALM,�L
2020/07/08,11:10,0.622,0.850,0.559,1.032,0.680,0.268,0.632,0.600,���쓌,11.6,�L
2020/07/08,11:20,0.623,0.852,0.559,1.028,0.682,0.270,0.630,0.598,-,CALM,�L
2020/07/08,11:30,0.626,0.851,0.559,1.034,0.684,0.279,0.634,0.603,���k��,7.9,�L
2020/07/08,11:40,0.623,0.846,0.556,1.021,0.679,0.278,0.628,0.600,�k��,7.3,�L
2020/07/08,11:50,0.618,0.843,0.552,1.017,0.679,0.274,0.630,0.601,�k��,4.4,�L
2020/07/08,12:00,0.624,0.848,0.556,1.019,0.680,0.277,0.628,0.600,�k�k��,7.8,�L
2020/07/08,12:10,0.625,0.854,0.558,1.023,0.686,0.285,0.630,0.603,���k��,6.5,�L
2020/07/08,12:20,0.633,0.858,0.563,1.030,0.691,0.298,0.633,0.606,���k��,3.6,�L
2020/07/08,12:30,0.631,0.859,0.560,1.029,0.692,0.313,0.632,0.605,�k�k��,6.2,�L
2020/07/08,12:40,0.634,0.860,0.564,1.033,0.696,0.326,0.633,0.607,�k��,4.8,�L
2020/07/08,12:50,0.636,0.864,0.567,1.037,0.700,0.352,0.636,0.609,�k��,4.5,�L
2020/07/08,13:00,0.638,0.869,0.569,1.044,0.706,0.370,0.638,0.611,�k�k��,3.7,�L
2020/07/08,13:10,0.642,0.874,0.571,1.051,0.711,0.378,0.641,0.612,�k��,1.9,�L
2020/07/08,13:20,0.644,0.879,0.574,1.056,0.715,0.380,0.642,0.613,�k�k��,2.6,�L
2020/07/08,13:30,0.645,0.878,0.574,1.065,0.717,0.382,0.644,0.613,�k�k��,2.3,�L
2020/07/08,13:40,0.645,0.879,0.573,1.066,0.720,0.382,0.644,0.614,�k�k��,2.2,�L
2020/07/08,13:50,0.644,0.879,0.576,1.069,0.722,0.382,0.647,0.614,�k,2.2,�L
2020/07/08,14:00,0.643,0.879,0.574,1.073,0.726,0.380,0.646,0.615,�k,2.9,��
2020/07/08,14:10,0.643,0.883,0.574,1.075,0.726,0.381,0.646,0.617,�k�k��,2.8,��
2020/07/08,14:20,0.644,0.887,0.575,1.076,0.727,0.381,0.645,0.616,�k,2.5,��
2020/07/08,14:30,0.642,0.884,0.573,1.077,0.730,0.380,0.648,0.615,�k�k��,2.3,��
2020/07/08,14:40,0.644,0.882,0.575,1.080,0.732,0.380,0.647,0.615,�k�k��,2.8,��
2020/07/08,14:50,0.643,0.885,0.573,1.081,0.734,0.381,0.648,0.616,�k�k��,1.7,��
2020/07/08,15:00,0.643,0.887,0.575,1.080,0.734,0.381,0.650,0.617,�k�k��,2.0,��
2020/07/08,15:10,0.645,0.888,0.575,1.084,0.737,0.381,0.648,0.616,���k��,0.8,��
2020/07/08,15:20,0.644,0.888,0.576,1.083,0.740,0.382,0.651,0.617,�쓌,2.3,��
2020/07/08,15:30,0.644,0.890,0.576,1.085,0.739,0.382,0.650,0.617,��쓌,4.2,��
2020/07/08,15:40,0.643,0.891,0.575,1.085,0.742,0.381,0.650,0.616,��쓌,3.6,��
2020/07/08,15:50,0.645,0.892,0.576,1.087,0.742,0.383,0.650,0.617,�쓌,2.0,��
2020/07/08,16:00,0.642,0.894,0.575,1.089,0.743,0.381,0.650,0.617,�쓌,4.4,��
2020/07/08,16:10,0.645,0.895,0.577,1.090,0.744,0.382,0.652,0.618,��쓌,5.6,��
2020/07/08,16:20,0.644,0.895,0.577,1.091,0.745,0.382,0.651,0.617,�쓌,4.7,��
2020/07/08,16:30,0.644,0.896,0.575,1.093,0.745,0.382,0.651,0.618,-,CALM,��
2020/07/08,16:40,0.643,0.894,0.577,1.092,0.746,0.383,0.651,0.617,��쓌,6.0,��
2020/07/08,16:50,0.646,0.896,0.579,1.095,0.748,0.381,0.652,0.617,��쓌,5.8,��
2020/07/08,17:00,0.643,0.894,0.579,1.093,0.749,0.383,0.654,0.617,��,5.8,��
2020/07/08,17:10,0.646,0.896,0.579,1.096,0.749,0.384,0.653,0.618,��,4.3,��
2020/07/08,17:20,0.643,0.896,0.578,1.096,0.752,0.383,0.654,0.619,��,3.8,��
2020/07/08,17:30,0.645,0.899,0.578,1.097,0.753,0.382,0.654,0.618,��,3.9,��
2020/07/08,17:40,0.644,0.898,0.579,1.099,0.754,0.384,0.654,0.618,��쓌,5.6,��
2020/07/08,17:50,0.643,0.897,0.578,1.097,0.755,0.384,0.653,0.618,��,6.1,��
2020/07/08,18:00,0.644,0.899,0.580,1.101,0.756,0.383,0.654,0.618,��,6.3,��
2020/07/08,18:10,0.646,0.899,0.579,1.100,0.755,0.384,0.654,0.619,��,6.0,��
2020/07/08,18:20,0.645,0.900,0.579,1.101,0.757,0.383,0.654,0.620,��,4.7,��
2020/07/08,18:30,0.645,0.899,0.581,1.103,0.758,0.382,0.654,0.617,��,3.5,��
2020/07/08,18:40,0.644,0.901,0.578,1.101,0.756,0.383,0.655,0.619,��,4.1,��
2020/07/08,18:50,0.643,0.901,0.581,1.104,0.760,0.384,0.655,0.618,�쐼,2.3,��
2020/07/08,19:00,0.644,0.903,0.581,1.107,0.758,0.383,0.653,0.620,�쐼,2.6,��
2020/07/08,19:10,0.644,0.902,0.582,1.107,0.760,0.384,0.654,0.620,�쐼,2.8,��
2020/07/08,19:20,0.645,0.903,0.583,1.107,0.759,0.385,0.658,0.618,�쐼,2.3,��
2020/07/08,19:30,0.646,0.903,0.583,1.107,0.760,0.384,0.656,0.622,�쐼,2.8,��
2020/07/08,19:40,0.647,0.905,0.584,1.107,0.763,0.385,0.655,0.621,�쐼,3.1,��
2020/07/08,19:50,0.647,0.904,0.585,1.110,0.764,0.384,0.656,0.621,���쐼,2.6,��
2020/07/08,20:00,0.649,0.905,0.585,1.109,0.764,0.385,0.655,0.622,�쐼,1.1,��
2020/07/08,20:10,0.648,0.905,0.584,1.109,0.763,0.387,0.656,0.622,��,1.5,��
2020/07/08,20:20,0.648,0.905,0.584,1.109,0.764,0.386,0.656,0.622,��쐼,1.7,��
2020/07/08,20:30,0.649,0.905,0.584,1.108,0.767,0.384,0.657,0.621,��쐼,2.6,��
2020/07/08,20:40,0.648,0.906,0.584,1.107,0.765,0.386,0.655,0.622,��쐼,3.0,��
2020/07/08,20:50,0.648,0.905,0.585,1.108,0.766,0.387,0.657,0.623,��쐼,3.2,��
2020/07/08,21:00,0.649,0.904,0.585,1.111,0.766,0.387,0.658,0.622,��쐼,2.5,��
2020/07/08,21:10,0.650,0.906,0.585,1.111,0.767,0.387,0.659,0.621,��,2.2,��
2020/07/08,21:20,0.649,0.904,0.586,1.112,0.768,0.386,0.656,0.624,��쐼,2.8,��
2020/07/08,21:30,0.648,0.906,0.585,1.110,0.768,0.386,0.659,0.623,��쐼,1.2,��
2020/07/08,21:40,0.649,0.907,0.586,1.110,0.767,0.387,0.655,0.624,�쐼,2.3,��
2020/07/08,21:50,0.651,0.907,0.586,1.110,0.768,0.386,0.659,0.621,�쐼,2.0,��
2020/07/08,22:00,0.650,0.904,0.584,1.110,0.767,0.387,0.659,0.623,�쐼,2.0,��
2020/07/08,22:10,0.649,0.907,0.584,1.111,0.770,0.386,0.658,0.622,���쐼,1.7,��
2020/07/08,22:20,0.650,0.906,0.586,1.112,0.769,0.386,0.658,0.622,��,1.7,��
2020/07/08,22:30,0.652,0.905,0.586,1.112,0.771,0.388,0.659,0.621,���쐼,1.2,��
2020/07/08,22:40,0.649,0.907,0.586,1.112,0.770,0.388,0.658,0.622,���쐼,2.0,��
2020/07/08,22:50,0.651,0.907,0.586,1.112,0.770,0.388,0.658,0.623,�쐼,3.2,��
2020/07/08,23:00,0.650,0.904,0.585,1.112,0.770,0.387,0.658,0.623,�쐼,2.9,��
2020/07/08,23:10,0.650,0.908,0.587,1.112,0.773,0.387,0.659,0.622,�쐼,4.2,��
2020/07/08,23:20,0.648,0.906,0.585,1.111,0.770,0.388,0.659,0.623,�쐼,4.0,��
2020/07/08,23:30,0.650,0.909,0.585,1.112,0.771,0.387,0.659,0.622,�쐼,3.6,��
2020/07/08,23:40,0.648,0.906,0.585,1.112,0.771,0.387,0.658,0.621,���쐼,3.2,��
2020/07/08,23:50,0.649,0.906,0.585,1.111,0.773,0.387,0.658,0.623,�쐼,2.8,��
